Regional Weather Roundup
Issued by NWS Goodland, KS

Home | Current Version | Previous Version | Text Only | Print | Product List | Glossary Off
Versions: 1 2 3 4 5 6 7 8 9 10 11 12 13 14 15 16 17 18 19 20 21 22 23 24 25 26 27 28 29 30 31 32 33 34 35 36 37 38 39 40 41 42 43 44 45 46 47 48 49 50

000
ASUS43 KGLD 252359
RWRGLD

GOODLAND FORECAST AREA HOURLY WEATHER ROUNDUP
NATIONAL WEATHER SERVICE GOODLAND KS
500 PM MST SUN JAN 25 2015

...OFFICIAL OBSERVATIONS...

CITY           SKY/WX    TMP DP  RH WIND       PRES   REMARKS
GOODLAND KS    CLEAR     46  31  55 N8        30.11R
HILL CITY KS   CLEAR     42  22  44 N5        30.09F
IMPERIAL NEB   PTCLDY    47  31  53 NW6       30.07S
MCCOOK NEB     PTCLDY    47  16  29 CALM      30.07R
AKRON CO       CLEAR     41  31  67 W8        30.11R
BURLINGTON CO  CLEAR     49  32  52 N7        30.13R
LIMON CO       CLEAR     41  26  55 N5        30.15R
$$

...UNOFFICIAL OBSERVATIONS...

CITY           SKY/WX    TMP DP  RH WIND       PRES   REMARKS
COLBY KS       MOCLDY    46  28  49 NW6       30.10R
GOVE KS          N/A     50  32  50 MISG        N/A
NORTON KS      CLEAR     45  19  36 CALM      30.08R
SHARON SPRINGS   N/A     52  32  47 N6          N/A
KIT CARSON CO    N/A     54  31  42 MISG        N/A
YUMA CO          N/A     49  34  56 N5          N/A
$$



USA.gov is the U.S. government's official web portal to all federal, state and local government web resources and services.